Tracking 30734 objects as of 25-Jun-2025
HD Live streaming from Space Station
objects crossing your sky now

SCOUT A DEB

Track SCOUT A DEB now!
10-day predictions


NORAD ID: 3214
Int'l Code: 1968-012D
Perigee: 1,017.3 km
Apogee: 1,296.8 km
Inclination: 89.8 °
Period: 108.3 minutes
Semi major axis: 7528 km
RCS: 0.049 m2 (small)
Launch date: March 2, 1968
Source: United States (US)
Launch site: AIR FORCE WESTERN TEST RANGE (AFWTR)

Note: This is SATELLITE DEBRIS
Your satellite tracking list
Your tracking list is empty




NASA's NSSDC Master Catalog

Two Line Element Set (TLE):
1 03214U 68012D   25175.24903001  .00000136  00000-0  24966-3 0  9996
2 03214  89.8346 109.6967 0185623 175.1985 346.4721 13.29167051536982
Source of the keplerian elements: AFSPC